FW8612 Weather Reports


time (UTC)temp
F
wind
direction
speed
knots
gust
knots
rain 1hr
in
rain 24hr
in
rain mn
in
humidity
%
barometer
mb
20260503204609 64 0 0.0 1.7 0.00 0.00 0.00 38 1017.0
20260503203103 63 0 0.0 2.6 0.00 0.00 0.00 40 1017.1
20260503201558 63 0 0.0 3.5 0.00 0.00 0.00 40 1017.3
20260503200059 64 328 0.0 2.6 0.00 0.00 0.00 38 1017.5
20260503194554 63 338 0.9 2.6 0.00 0.00 0.00 38 1017.9
20260503193055 63 308 0.0 0.9 0.00 0.00 0.00 38 1018.1
20260503191617 63 0 0.0 0.9 0.00 0.00 0.00 39 1018.3
20260503190056 62 0 0.0 1.7 0.00 0.00 0.00 40 1018.5
20260503184557 62 149 0.9 3.5 0.00 0.00 0.00 38 1018.6
20260503183111 62 247 0.0 2.6 0.00 0.00 0.00 41 1018.7
20260503181555 63 0 0.0 1.7 0.00 0.00 0.00 39 1018.8
20260503180053 61 44 0.9 3.5 0.00 0.00 0.00 44 1019.1
20260503174554 62 45 0.0 2.6 0.00 0.00 0.00 39 1019.1
20260503173116 60 328 0.0 1.7 0.00 0.00 0.00 38 1019.3
20260503171552 58 0 0.9 5.2 0.00 0.00 0.00 41 1019.6
20260503120109 40 0 0.0 0.9 0.00 0.00 0.00 82 1020.3
20260503100104 39 0 0.0 0.0 0.00 0.00 0.00 82 1018.7
20260503081556 41 0 0.0 0.0 0.00 0.00 0.00 78 1017.7
20260503071616 41 0 0.0 1.7 0.00 0.00 0.00 78 1017.0
20260503070106 41 0 0.0 0.9 0.00 0.00 0.00 76 1017.0
20260503054559 42 0 0.0 0.9 0.00 0.00 0.00 73 1017.2
20260503053057 43 0 0.0 0.0 0.00 0.00 0.00 73 1017.2
20260503051555 43 0 0.0 0.0 0.00 0.00 0.00 71 1017.1
20260503050057 43 0 0.0 0.0 0.00 0.00 0.00 70 1017.0
20260503044606 44 0 0.0 0.9 0.00 0.00 0.00 70 1017.0
20260503043059 44 0 0.0 0.9 0.00 0.00 0.00 68 1017.0
20260503041605 44 0 0.0 0.0 0.00 0.00 0.00 66 1016.9
20260503040057 45 0 0.0 0.0 0.00 0.00 0.00 69 1016.8
20260503034606 45 0 0.0 0.0 0.00 0.00 0.00 67 1016.5
20260503033055 45 0 0.0 0.0 0.00 0.00 0.00 66 1016.5
20260503031553 46 0 0.0 0.9 0.00 0.00 0.00 65 1016.5
20260503030056 46 0 0.0 0.9 0.00 0.00 0.00 64 1016.3
20260503024554 46 0 0.0 0.0 0.00 0.00 0.00 64 1016.3
20260503023051 47 0 0.0 0.0 0.00 0.00 0.00 61 1016.2
20260503021550 47 0 0.0 0.0 0.00 0.00 0.00 61 1016.0
20260503020049 48 0 0.0 0.0 0.00 0.00 0.00 59 1016.0
20260503014554 49 0 0.0 0.9 0.00 0.00 0.00 57 1015.8
20260503013051 49 0 0.0 0.9 0.00 0.00 0.00 55 1015.6
20260503011552 50 0 0.0 0.0 0.00 0.00 0.00 55 1015.4
20260503010051 51 0 0.0 0.9 0.00 0.00 0.00 54 1015.2
20260503004611 51 0 0.0 2.6 0.00 0.00 0.00 51 1014.9
20260503003051 51 0 0.0 2.6 0.00 0.00 0.00 53 1014.3
20260503001550 52 0 0.0 0.9 0.00 0.00 0.00 50 1014.1
20260503000055 53 0 0.0 2.6 0.00 0.00 0.00 48 1014.0
20260502234557 53 0 0.0 3.5 0.00 0.00 0.00 47 1013.7
20260502233051 54 55 0.9 7.0 0.00 0.00 0.00 44 1013.6
20260502231605 55 0 0.0 2.6 0.00 0.00 0.00 44 1013.5
20260502230055 56 0 0.0 5.2 0.00 0.00 0.00 42 1013.3
20260502224556 58 0 0.0 2.6 0.00 0.00 0.00 39 1013.4
20260502223055 57 268 0.0 2.6 0.00 0.00 0.00 41 1013.5
20260502221601 59 317 0.9 6.1 0.00 0.00 0.00 39 1013.2
20260502214555 59 74 0.9 3.5 0.00 0.00 0.00 39 1012.8
20260502213052 59 0 0.0 3.5 0.00 0.00 0.00 39 1012.7
20260502211553 59 0 1.7 4.3 0.00 0.00 0.00 38 1012.4
20260502210104 60 0 0.0 4.3 0.00 0.00 0.00 40 1012.4